Location: Millers Ferry
(32.0990°N, 87.3680°W)
Time: 17:10:06
(UTC-05:00)

CSL-04 Rocket - Visible Passes

Search period start: 28 September 2016 00:00
Search period end: 08 October 2016 00:00
Orbit: 806 x 861 km, 99.0° (Epoch: 27 September)

Date Brightness Start Highest point End Pass type
(mag) Time Alt. Az. Time Alt. Az. Time Alt. Az.
28 Sep 6.7 04:57:48 10° ENE 05:00:06 13° E 05:02:25 10° ESE visible
30 Sep 4.2 06:01:44 10° NNE 06:06:59 63° ESE 06:12:14 10° S visible
30 Sep 7.4 19:05:33 10° WSW 19:06:47 11° W 19:08:01 10° W visible
01 Oct 5.0 05:45:04 10° NNE 05:50:04 42° E 05:55:05 10° S visible
02 Oct 5.8 05:28:36 10° NE 05:33:08 28° E 05:37:39 10° SSE visible
03 Oct 6.4 05:12:26 10° NE 05:16:08 19° E 05:19:51 10° SE visible
04 Oct 6.8 04:56:58 10° ENE 04:59:07 12° E 05:01:16 10° ESE visible
05 Oct 3.7 06:17:33 10° NNE 06:22:53 90° ESE 06:28:14 10° SSW visible
06 Oct 4.3 06:00:45 10° NNE 06:06:00 61° ESE 06:11:17 10° S visible
06 Oct 7.4 19:04:19 10° WSW 19:05:48 11° W 19:07:17 10° WNW visible
07 Oct 5.1 05:44:06 10° NNE 05:49:05 41° E 05:54:06 10° S visible
07 Oct 6.9 18:45:19 10° SW 18:48:47 17° W 18:52:13 10° NW visible
